Madera, CA

6:41 PM PDT on March 25, 2017 (GMT -0700)
Madera Municipal

Weather History for KMAE - November, 2011

Change the Weather History Date:

Sunday, November 6, 2011

  Actual Average Record
Temperature  
Mean Temperature 50 °F 56 °F  
Max Temperature 59 °F 69 °F 82 °F (2012)
Min Temperature 41 °F 43 °F 36 °F (1998)
Degree Days  
Heating Degree Days 15    
Month to date heating degree days 69  
Since 1 July heating degree days 130  
Cooling Degree Days 0    
Month to date cooling degree days 0  
Year to date cooling degree days 1402  
Moisture  
Dew Point 41 °F    
Average Humidity 70    
Maximum Humidity 93    
Minimum Humidity 47    
Precipitation  
Precipitation 0.27 in 0.04 in 0.27 in (2011)
Month to date precipitation 0.47 0.27  
Year to date precipitation 8.61 9.44  
Since 1 July precipitation 1.23  
Snow  
Snow 0.00 in - - ()
Month to date snowfall 0.0  
Since 1 July snowfall 0.0  
Since 1 September snowfall 0.0  
Snow Depth 0.00 in    
Sea Level Pressure  
Sea Level Pressure 30.03 in    
Wind  
Wind Speed 5 mph (West)    
Max Wind Speed 17 mph    
Max Gust Speed 22 mph    
Visibility 10 miles    
Events Rain    
T = Trace of Precipitation, MM = Missing Value Source: NWS Daily Summary

Daily Weather History Graph

Daily Weather History Graph

Search for Another Location

Airport or City:

Trip Planner

Search our weather history database for the weather conditions in past years. The results will help you decide how hot, cold, wet, or windy it might be!

Date:

Astronomy

Nov. 06, 2011 Rise Set
Actual Time 6:29 AM PST 4:58 PM PST
Civil Twilight 6:02 AM PST 5:25 PM PST
Nautical Twilight 5:31 AM PST 5:56 PM PST
Astronomical Twilight 5:00 AM PST 6:26 PM PST
Moon 2:40 PM PST (11/6) 2:45 AM PST (11/6)
Length of Visible Light 11h 23m
Length of Day
10h 28m
Waxing Gibbous, 86% of the Moon is Illuminated
Nov 6
Waxing Gibbous
Nov 10
Full
Nov 18
Last Quarter
Nov 24
New
Dec 2
First Quarter

Hourly Weather History & Observations

Time (PST) Temp. Windchill Dew Point Humidity Pressure Visibility Wind Dir Wind Speed Gust Speed Precip Events Conditions
12:53 AM 46.9 °F - 43.0 °F 86% 30.00 in 5.0 mi East 9.2 mph - 0.03 in Rain Rain
1:53 AM 46.9 °F - 42.1 °F 83% 29.98 in 10.0 mi East 13.8 mph - 0.11 in Rain Light Rain
1:53 AM 46.9 °F - 41.0 °F 80% 29.96 in 10.0 mi East 17.3 mph - 0.12 in   Overcast
2:53 AM 45.0 °F 38.9 °F 41.0 °F 86% 29.97 in 10.0 mi ESE 12.7 mph - 0.01 in Rain Light Rain
3:53 AM 45.0 °F 39.7 °F 39.9 °F 82% 29.97 in 10.0 mi ESE 10.4 mph - 0.01 in   Scattered Clouds
4:53 AM 44.1 °F 41.5 °F 41.0 °F 89% 29.98 in 10.0 mi ESE 4.6 mph - 0.01 in   Overcast
5:53 AM 43.0 °F 41.3 °F 39.9 °F 89% 29.99 in 10.0 mi ESE 3.5 mph - N/A   Scattered Clouds
6:53 AM 41.0 °F - 39.9 °F 96% 30.01 in 10.0 mi Calm Calm - N/A   Scattered Clouds
7:53 AM 46.0 °F - 42.1 °F 86% 30.03 in 10.0 mi Calm Calm - 0.01 in   Overcast
8:53 AM 48.0 °F - 41.0 °F 77% 30.04 in 10.0 mi SE 5.8 mph - N/A   Overcast
9:53 AM 50.0 °F - 43.0 °F 77% 30.05 in 10.0 mi South 4.6 mph - N/A   Clear
10:53 AM 53.1 °F - 43.0 °F 69% 30.06 in 10.0 mi Calm Calm - N/A   Scattered Clouds
11:04 AM 53.6 °F - 42.8 °F 67% 30.06 in 10.0 mi NNE 4.6 mph - 0.01 in   Mostly Cloudy
11:36 AM 53.6 °F - 42.8 °F 67% 30.04 in 10.0 mi Calm Calm - 0.01 in   Scattered Clouds
11:53 AM 54.0 °F - 41.0 °F 62% 30.04 in 10.0 mi Calm Calm - 0.01 in   Partly Cloudy
12:53 PM 55.9 °F - 41.0 °F 57% 30.02 in 10.0 mi North 4.6 mph - N/A   Scattered Clouds
1:53 PM 55.9 °F - 39.9 °F 55% 30.01 in 10.0 mi WNW 5.8 mph - N/A   Partly Cloudy
2:53 PM 59.0 °F - 39.0 °F 48% 30.00 in 10.0 mi WNW 8.1 mph - N/A   Clear
3:53 PM 55.9 °F - 39.0 °F 53% 30.01 in 10.0 mi West 6.9 mph - N/A   Clear
4:53 PM 52.0 °F - 39.0 °F 61% 30.02 in 10.0 mi WNW 5.8 mph - N/A   Clear
5:53 PM 46.9 °F - 39.9 °F 77% 30.04 in 10.0 mi West 5.8 mph - N/A   Clear
7:53 PM 46.9 °F - 42.1 °F 83% 30.07 in 10.0 mi West 8.1 mph - N/A   Clear
8:53 PM 43.0 °F 41.3 °F 41.0 °F 93% 30.09 in 8.0 mi West 3.5 mph - N/A   Clear
9:53 PM 43.0 °F 41.3 °F 39.9 °F 89% 30.10 in 8.0 mi West 3.5 mph - N/A   Clear
10:53 PM 41.0 °F 39.0 °F 39.0 °F 93% 30.11 in 6.0 mi WNW 3.5 mph - N/A   Clear